Weather History for KEWR - March, 2014

Change the Weather History Date:

Saturday, March 1, 2014

  Actual Average Record
Temperature  
Mean Temperature 29 °F 38 °F  
Max Temperature 40 °F 46 °F 75 °F (1972)
Min Temperature 17 °F 30 °F 7 °F (1980)
Degree Days  
Heating Degree Days 36 27  
Month to date heating degree days 36 27  
Since 1 July heating degree days 3911 3662  
Cooling Degree Days 0 0  
Month to date cooling degree days 0 0  
Year to date cooling degree days 0 0  
Moisture  
Dew Point 11 °F    
Average Humidity 47    
Maximum Humidity 67    
Minimum Humidity 27    
Precipitation  
Precipitation 0.00 in 0.12 in 1.96 in (1987)
Month to date precipitation 0.00 0.12  
Year to date precipitation 7.72 6.54  
Snow  
Snow 0.00 in 0.20 in 4.80 in (1952)
Month to date snowfall 0.0 0.2  
Since 1 July snowfall 60.5 23.2  
Snow Depth 0.00 in    
Sea Level Pressure  
Sea Level Pressure 30.32 in    
Wind  
Wind Speed 4 mph (SSW)    
Max Wind Speed 13 mph    
Max Gust Speed 17 mph    
Visibility 10 miles    
Events      
T = Trace of Precipitation, MM = Missing Value Source: NWS Daily Summary

Daily Weather History Graph

Daily Weather History Graph

Search for Another Location

Airport or City:

Trip Planner

Search our weather history database for the weather conditions in past years. The results will help you decide how hot, cold, wet, or windy it might be!

Date:

Astronomy

Mar. 01, 2014 Rise Set
Actual Time 6:30 AM EST 5:47 PM EST
Civil Twilight 6:03 AM EST 6:15 PM EST
Nautical Twilight 5:31 AM EST 6:47 PM EST
Astronomical Twilight 4:59 AM EST 7:18 PM EST
Moon 6:22 AM EST (3/1) 6:32 PM EST (3/1)
Length of Visible Light 12h 12m
Length of Day
11h 17m
New Moon, 0% of the Moon is Illuminated
Mar 1
New Moon
Mar 8
First Quarter
Mar 16
Full
Mar 23
Last Quarter
Mar 30
New

Hourly Weather History & Observations

Time (EST) Temp. Windchill Dew Point Humidity Pressure Visibility Wind Dir Wind Speed Gust Speed Precip Events Conditions
12:51 AM 19.0 °F 13.9 °F 3.0 °F 50% 30.43 in 10.0 mi South 3.5 mph - N/A   Clear
1:51 AM 19.0 °F - 5.0 °F 54% 30.43 in 10.0 mi Calm Calm - N/A   Clear
2:51 AM 18.0 °F - 5.0 °F 57% 30.41 in 10.0 mi Calm Calm - N/A   Clear
3:51 AM 18.0 °F - 5.0 °F 57% 30.41 in 10.0 mi Calm Calm - N/A   Clear
4:51 AM 19.0 °F - 3.9 °F 52% 30.40 in 10.0 mi Calm Calm - N/A   Clear
5:51 AM 19.0 °F - 5.0 °F 54% 30.40 in 10.0 mi Calm Calm - N/A   Clear
6:51 AM 18.0 °F 12.7 °F 8.1 °F 65% 30.39 in 10.0 mi NNE 3.5 mph - N/A   Scattered Clouds
7:51 AM 21.9 °F - 10.0 °F 60% 30.41 in 10.0 mi Calm Calm - N/A   Mostly Cloudy
8:51 AM 26.1 °F 20.5 °F 10.9 °F 53% 30.41 in 10.0 mi South 4.6 mph - N/A   Mostly Cloudy
9:51 AM 30.0 °F 25.2 °F 12.9 °F 49% 30.40 in 10.0 mi SSW 4.6 mph - N/A   Mostly Cloudy
10:51 AM 30.9 °F 26.2 °F 10.0 °F 42% 30.38 in 10.0 mi Variable 4.6 mph - N/A   Mostly Cloudy
11:51 AM 33.1 °F 25.5 °F 10.0 °F 38% 30.35 in 10.0 mi South 9.2 mph - N/A   Mostly Cloudy
12:51 PM 34.0 °F 28.0 °F 10.9 °F 38% 30.31 in 10.0 mi South 6.9 mph - N/A   Mostly Cloudy
1:51 PM 37.9 °F 35.5 °F 10.9 °F 33% 30.27 in 10.0 mi Variable 3.5 mph - N/A   Scattered Clouds
2:51 PM 39.0 °F 34.8 °F 9.0 °F 29% 30.24 in 10.0 mi Variable 5.8 mph - N/A   Mostly Cloudy
3:51 PM 37.0 °F 30.4 °F 8.1 °F 30% 30.24 in 10.0 mi West 9.2 mph - N/A   Overcast
4:51 PM 37.0 °F 29.3 °F 8.1 °F 30% 30.23 in 10.0 mi WSW 11.5 mph - N/A   Overcast
5:51 PM 35.1 °F 32.2 °F 16.0 °F 46% 30.22 in 10.0 mi South 3.5 mph - N/A   Mostly Cloudy
6:51 PM 36.0 °F 33.3 °F 19.9 °F 52% 30.23 in 10.0 mi SSE 3.5 mph - N/A   Overcast
7:51 PM 35.1 °F 32.2 °F 23.0 °F 61% 30.22 in 10.0 mi South 3.5 mph - N/A   Overcast
8:51 PM 35.1 °F 31.0 °F 25.0 °F 67% 30.20 in 10.0 mi South 4.6 mph - N/A   Overcast
9:51 PM 35.1 °F 32.2 °F 17.1 °F 48% 30.19 in 10.0 mi WSW 3.5 mph - N/A   Mostly Cloudy
10:51 PM 35.1 °F 31.0 °F 15.1 °F 44% 30.18 in 10.0 mi SW 4.6 mph - N/A   Mostly Cloudy
11:51 PM 35.1 °F 29.3 °F 12.9 °F 40% 30.17 in 10.0 mi WSW 6.9 mph - N/A   Overcast